Regional Weather Roundup
Issued by NWS

Home | Current Version | Previous Version | Text Only | Print | Product List | Glossary On
Versions: 1 2 3 4 5 6 7 8 9 10 11 12 13 14 15 16 17 18 19 20 21 22 23 24 25 26 27 28 29 30 31 32 33 34 35 36 37 38 39 40 41 42 43 44 45 46 47 48 49 50
000
ASUS44 KJAN 230510
RWRMS

MISSISSIPPI HOURLY WEATHER ROUNDUP
NATIONAL WEATHER SERVICE JACKSON MS
1200 AM CDT SAT SEP 23 2017

NOTE: "FAIR: INDICATES FEW OR NO CLOUDS BELOW 12,000 FEET WITH NO
SIGNIFICANT WEATHER AND/OR OBSTRUCTIONS TO VISIBILITY.

MSZ001>002-007>008-010>013-018>021-025>028-034>036-230600-
NORTHWEST MISSISSIPPI

CITY           SKY/WX    TMP DP  RH WIND       PRES   REMARKS
BATESVILLE     FAIR      71  69  94 CALM      29.99F FOG
CLARKSDALE       N/A     73  73 100 CALM      29.98S
CLEVELAND      FAIR      76  74  96 CALM      29.97S
GREENWOOD      CLEAR     76  72  87 CALM      29.97S
GREENVILLE     CLEAR     72  68  87 CALM      29.96S
OXFORD         FAIR      70  68  94 CALM      30.00F
TUNICA           N/A     70  70 100 CALM      29.99S
WINONA         FAIR      70  70 100 CALM      29.97F FOG
$$

MSZ003>006-009-014>017-022>024-029>033-037>039-230600-
NORTHEAST MISSISSIPPI

CITY           SKY/WX    TMP DP  RH WIND       PRES   REMARKS
COLUMBUS AFB   CLEAR     72  72 100 CALM      29.97F
STARKVILLE       N/A     70  68  94 CALM      29.99F FOG
TUPELO         CLEAR     74  70  87 CALM      29.99S
$$

MSZ040-058-230600-
CENTRAL MISSISSIPPI

CITY           SKY/WX    TMP DP  RH WIND       PRES   REMARKS
JACKSON INTL   CLEAR     74  72  93 CALM      29.96F
JACKSON HAWKNS CLEAR     74  73  97 CALM      29.97F
MADISON          N/A     72  72 100 CALM      29.96F VSB 3/4
MERIDIAN KEY   CLEAR     72  71  97 CALM      29.98F
MERIDIAN NAS   CLEAR     73  70  90 NW3       29.98F
RAYMOND        FOG       72  70  94 CALM      29.96S VSB 3/4
VICKSBURG VKS  CLEAR     72  72 100 CALM      29.96F
$$

MSZ059>079-230600-
SOUTH MISSISSIPPI

CITY           SKY/WX    TMP DP  RH WIND       PRES   REMARKS
COLUMBIA       FAIR      70 N/A N/A CALM      30.00F
HATTIESBURG    NOT AVBL
LAUREL         FAIR      73  73 100 CALM      29.97S
MCCOMB         NOT AVBL
NATCHEZ        CLEAR     74  71  91 SE5       29.96F
PINE BELT      CLEAR     72  71  97 CALM      29.98F
$$

MSZ080>082-230600-
COASTAL MISSISSIPPI

CITY           SKY/WX    TMP DP  RH WIND       PRES   REMARKS
BILOXI         CLEAR     73  70  88 NE6       29.95S
PASCAGOULA     NOT AVBL
GULFPORT       NOT AVBL
$$

LAZ007>009-015>016-023>026-230600-
NORTHEAST LOUISIANA

CITY           SKY/WX    TMP DP  RH WIND       PRES   REMARKS
BASTROP        FAIR      72  72  99 CALM      29.96F FOG
TALLULAH/VBURG CLEAR     72  71  97 CALM      29.95F FOG
VIDALIA          N/A    N/A N/A N/A MISG      29.94F
$$



USA.gov is the U.S. government's official web portal to all federal, state and local government web resources and services.